{"data":{"norad_id":65042,"intl_designator":"2025-161AD","name":"STARLINK-34824","alt_names":[],"object_type":"PAYLOAD","status":"ACTIVE","operator":null,"country":"US","launch_date":"2025-07-30","launch_site_code":"AFWTR","launch_vehicle":null,"mission":null,"orbit_class":"UNKNOWN","rcs_meters":null,"size_class":null,"mass_kg":null,"dimensions":null,"purposes":["comms"],"wikipedia_slug":null,"has_3d_model":false,"image_url":null,"decayed_at":null,"tle_current":{"epoch":"2026-09-20T01:48:54.527040Z","epoch_age_seconds":157606,"freshness":"FRESH","line1":"1 65042U 25161AD  26263.07563110  .00014094  00000+0  42740-3 0  9991","line2":"2 65042  53.1575 107.5781 0001691  72.5262 287.5926 15.34407113 64047","mean_motion":15.34407113,"eccentricity":0.0001691,"inclination_deg":53.1575,"raan_deg":107.5781,"arg_perigee_deg":72.5262,"mean_anomaly_deg":287.5926,"bstar":0.0004274,"rev_number":6404,"period_min":93.847323034405,"perigee_km":461.52531644414,"apogee_km":463.83888146341,"semimajor_km":6840.8190989538,"source":"CELESTRAK","updated_at":"2026-09-21T09:00:35.497446Z"}}}